Siga o Apolo11 no Facebook   Siga o Apolo11 no Twiiter
Ciência, Espaço e Tecnologia




Elementos Keplerianos formato Two Line

Para que um programa de rastreio possa saber a localização exata de qualquer satélite no espaço e assim poder rastreá-lo corretamente, é necessário que ele seja carregado com algumas informações.

Estas informações são chamadas de Elementos Orbitais ou Elementos Keplerianos e consistem em 2 linhas com dezenas de números. Esses números nada mais são que os parâmetros orbitais do satélite, tais como altitude, atitude, excentricidade da órbita, número de órbitas por dia, etc.

Com base nestas informações o programa é capaz de determinar com bastante exatidão a posição de qualquer satélite no espaço e nos informar em qual horário este estará dentro do alcance de nossa estação. Para que isso seja feito com precisão é necessário que os dados estejam sempre bem atualizadas.

Devido aos parâmetros orbitais serem descritos em 2 linhas, estes formato é também conhecido internacionalmente por 2line (leia-se Two Line”).

Para atualizar seu programa de rastreio basta copiar os dados disponibilizados e fornece-los ao programa. Nossos elementos orbitais são atualizados diariamente.

NOAATodos os satélites ambientais da série NOAA
30 DiasSatélites lançados nos últimos 30 dias
ISSSatélites e foguetes relacionados à Estação Espacial Internacional
HAMSatélites construídos por radiomadores
CUBESatélites tipo cubo, com 10 centímetros de lado
METEOSatélites voltados à previsão do tempo
EDUSatélites construídos e operados por universidades
VIS100 satélites mais brilhantes que podem ser vistos a olho nú



Estação Espacial Internacional
ISS (ZARYA)             
1 25544U 98067A   13198.14651620  .00009960  00000-0  18303-3 0  2015
2 25544  51.6506 319.8639 0005082 189.9480 167.0474 15.49876943839340
TIANGONG 1              
1 37820U 11053A   13198.18592753  .00048502  00000-0  38205-3 0  1039
2 37820  42.7780 177.3934 0005512  75.7801  35.3393 15.70640940103371
RAIKO                   
1 38852U 98067CN  13197.74093595  .00410578  78410-4  10258-2 0  2809
2 38852  51.6322 293.6827 0005788   1.8996 358.2032 15.95178768 44564
FITSAT-1 (NIWAKA)       
1 38853U 98067CP  13184.86912902  .06638326  12312-4  50483-3 0  3153
2 38853  51.6252 351.6077 0011722 245.9321 114.2104 16.39337660 42708
PROGRESS-M 19M          
1 39148U 13017A   13170.46039669  .00016095  00000-0  19036-3 0  1021
2 39148  51.6456  96.6234 0044309 336.0518  23.8929 15.59352749  8720
SHENZHOU 10 (SZ-10)     
1 39179U 13029A   13176.54655719  .00068135  00000-0  38205-3 0   236
2 39179  42.7763 308.1568 0003627 134.4152 276.9852 15.78373574  2202


IMAGENS DE SATÉLITES !    Clique e conheça nosso Vídeo Workshop de sensoriamento remoto e imagens meteorológicas.
Apolo11.com - Todos os direitos reservados - 2001 - 2018
Política de Privacidade

"O segredo em negócios é saber alguma coisa que mais ninguém sabe." - Aristóteles Onassis